| time (UTC) | temp F | wind direction | speed MPH | gust MPH | rain 1hr in | rain 24hr in | rain mn in | humidity % | barometer mb |
| 20260507204553 | 56 | 0 | 0.0 | 3.0 | 0.00 | 0.08 | 0.03 | 73 | 1015.2 |
| 20260507204034 | 57 | 347 | 1.0 | 3.0 | 0.00 | 0.08 | 0.03 | 73 | 1015.2 |
| 20260507203535 | 57 | 351 | 1.0 | 3.0 | 0.00 | 0.08 | 0.03 | 73 | 1015.0 |
| 20260507203052 | 57 | 351 | 0.0 | 3.0 | 0.00 | 0.08 | 0.03 | 72 | 1015.1 |
| 20260507202536 | 57 | 335 | 0.0 | 2.0 | 0.00 | 0.08 | 0.03 | 70 | 1015.0 |
| 20260507202034 | 57 | 0 | 0.0 | 3.0 | 0.00 | 0.08 | 0.03 | 70 | 1014.9 |
| 20260507201548 | 57 | 0 | 1.0 | 3.0 | 0.00 | 0.08 | 0.03 | 71 | 1014.7 |
| 20260507201035 | 57 | 355 | 1.0 | 3.0 | 0.00 | 0.08 | 0.03 | 71 | 1014.6 |
| 20260507200535 | 57 | 0 | 1.0 | 3.0 | 0.00 | 0.08 | 0.03 | 70 | 1014.6 |
| 20260507200051 | 58 | 12 | 2.0 | 3.0 | 0.00 | 0.08 | 0.03 | 71 | 1014.5 |
| 20260507195535 | 58 | 37 | 1.0 | 3.0 | 0.00 | 0.14 | 0.03 | 70 | 1014.5 |
| 20260507195035 | 58 | 19 | 2.0 | 3.0 | 0.00 | 0.14 | 0.03 | 69 | 1014.3 |
| 20260507194554 | 59 | 27 | 1.0 | 3.0 | 0.00 | 0.14 | 0.03 | 68 | 1014.3 |
| 20260507194035 | 59 | 27 | 1.0 | 3.0 | 0.00 | 0.14 | 0.03 | 67 | 1014.2 |
| 20260507193534 | 59 | 44 | 1.0 | 3.0 | 0.00 | 0.14 | 0.03 | 67 | 1014.3 |
| 20260507193057 | 59 | 42 | 0.0 | 6.0 | 0.00 | 0.14 | 0.03 | 65 | 1014.1 |
| 20260507192535 | 59 | 286 | 0.0 | 6.0 | 0.00 | 0.14 | 0.03 | 63 | 1014.1 |
| 20260507192035 | 59 | 330 | 1.0 | 5.0 | 0.00 | 0.14 | 0.03 | 63 | 1014.0 |
| 20260507191555 | 59 | 317 | 1.0 | 4.0 | 0.00 | 0.14 | 0.03 | 63 | 1013.9 |
| 20260507191039 | 59 | 360 | 1.0 | 6.0 | 0.00 | 0.14 | 0.03 | 63 | 1014.0 |
| 20260507190535 | 59 | 23 | 1.0 | 7.0 | 0.00 | 0.14 | 0.03 | 63 | 1013.8 |
| 20260507190046 | 60 | 339 | 1.0 | 7.0 | 0.00 | 0.14 | 0.03 | 63 | 1013.8 |
| 20260507185535 | 60 | 40 | 1.0 | 8.0 | 0.00 | 0.25 | 0.03 | 63 | 1013.7 |
| 20260507185035 | 60 | 35 | 2.0 | 8.0 | 0.00 | 0.25 | 0.03 | 62 | 1013.7 |
| 20260507184550 | 60 | 5 | 3.0 | 8.0 | 0.00 | 0.25 | 0.03 | 61 | 1013.6 |
| 20260507184039 | 60 | 32 | 2.0 | 8.0 | 0.00 | 0.25 | 0.03 | 62 | 1013.5 |
| 20260507183535 | 60 | 10 | 2.0 | 8.0 | 0.00 | 0.25 | 0.03 | 62 | 1013.4 |
| 20260507183050 | 60 | 26 | 2.0 | 8.0 | 0.00 | 0.25 | 0.03 | 61 | 1013.3 |
| 20260507182535 | 60 | 308 | 3.0 | 8.0 | 0.00 | 0.25 | 0.03 | 62 | 1013.3 |
| 20260507182036 | 61 | 329 | 2.0 | 9.0 | 0.00 | 0.25 | 0.03 | 62 | 1013.2 |
| 20260507181550 | 61 | 339 | 2.0 | 9.0 | 0.00 | 0.25 | 0.03 | 62 | 1013.2 |
| 20260507181035 | 61 | 320 | 1.0 | 9.0 | 0.00 | 0.25 | 0.03 | 62 | 1013.0 |
| 20260507180539 | 61 | 346 | 2.0 | 9.0 | 0.00 | 0.25 | 0.03 | 61 | 1013.2 |
| 20260507180050 | 61 | 29 | 2.0 | 9.0 | 0.00 | 0.25 | 0.03 | 62 | 1013.0 |
| 20260507175535 | 61 | 19 | 1.0 | 9.0 | 0.00 | 0.25 | 0.03 | 61 | 1012.9 |
| 20260507175035 | 62 | 38 | 2.0 | 9.0 | 0.00 | 0.25 | 0.03 | 60 | 1012.9 |
| 20260507174614 | 63 | 66 | 3.0 | 9.0 | 0.00 | 0.25 | 0.03 | 60 | 1012.8 |
| 20260507174035 | 63 | 351 | 1.0 | 5.0 | 0.00 | 0.25 | 0.03 | 59 | 1012.7 |
| 20260507173535 | 63 | 51 | 1.0 | 5.0 | 0.00 | 0.25 | 0.03 | 59 | 1012.8 |
| 20260507173055 | 64 | 338 | 1.0 | 5.0 | 0.00 | 0.25 | 0.03 | 58 | 1012.6 |
| 20260507172534 | 64 | 0 | 0.0 | 5.0 | 0.00 | 0.25 | 0.03 | 59 | 1012.7 |
| 20260507172034 | 64 | 94 | 1.0 | 5.0 | 0.00 | 0.25 | 0.03 | 57 | 1012.7 |
| 20260507171608 | 65 | 19 | 1.0 | 4.0 | 0.00 | 0.25 | 0.03 | 57 | 1012.6 |
| 20260507171035 | 65 | 43 | 0.0 | 3.0 | 0.00 | 0.25 | 0.03 | 57 | 1012.5 |
| 20260507170535 | 66 | 0 | 1.0 | 3.0 | 0.00 | 0.25 | 0.03 | 54 | 1012.6 |
| 20260507170051 | 66 | 335 | 0.0 | 3.0 | 0.00 | 0.25 | 0.03 | 55 | 1012.5 |
| 20260507165537 | 66 | 0 | 0.0 | 3.0 | 0.00 | 0.25 | 0.03 | 58 | 1012.4 |
| 20260507165035 | 67 | 0 | 1.0 | 4.0 | 0.00 | 0.25 | 0.03 | 56 | 1012.4 |
| 20260507164552 | 67 | 249 | 1.0 | 4.0 | 0.00 | 0.25 | 0.03 | 56 | 1012.5 |
| 20260507164035 | 68 | 275 | 1.0 | 4.0 | 0.00 | 0.25 | 0.03 | 53 | 1012.4 |
| 20260507163535 | 68 | 202 | 1.0 | 4.0 | 0.00 | 0.25 | 0.03 | 56 | 1012.4 |
| 20260507163051 | 68 | 250 | 1.0 | 7.0 | 0.00 | 0.25 | 0.03 | 53 | 1012.4 |
| 20260507162535 | 68 | 206 | 1.0 | 7.0 | 0.00 | 0.25 | 0.03 | 54 | 1012.3 |
| 20260507162035 | 68 | 231 | 2.0 | 7.0 | 0.00 | 0.25 | 0.03 | 55 | 1012.3 |
| 20260507161553 | 68 | 274 | 3.0 | 7.0 | 0.00 | 0.25 | 0.03 | 53 | 1012.3 |
| 20260507161037 | 68 | 238 | 3.0 | 8.0 | 0.00 | 0.25 | 0.03 | 54 | 1012.4 |
| 20260507160535 | 68 | 248 | 3.0 | 8.0 | 0.00 | 0.25 | 0.03 | 53 | 1012.4 |
| 20260507160114 | 69 | 236 | 2.0 | 7.0 | 0.00 | 0.25 | 0.03 | 53 | 1012.4 |
| 20260507155534 | 68 | 267 | 3.0 | 9.0 | 0.00 | 0.25 | 0.03 | 50 | 1012.5 |
| 20260507155035 | 68 | 234 | 3.0 | 9.0 | 0.00 | 0.25 | 0.03 | 52 | 1012.5 |
| 20260507154551 | 69 | 242 | 4.0 | 8.0 | 0.00 | 0.25 | 0.03 | 51 | 1012.5 |
| 20260507154034 | 69 | 186 | 3.0 | 8.0 | 0.00 | 0.25 | 0.03 | 54 | 1012.4 |
| 20260507153534 | 69 | 255 | 3.0 | 5.0 | 0.00 | 0.25 | 0.03 | 49 | 1012.6 |
| 20260507153048 | 69 | 199 | 1.0 | 7.0 | 0.00 | 0.25 | 0.03 | 53 | 1012.4 |
| 20260507152537 | 69 | 238 | 3.0 | 8.0 | 0.00 | 0.25 | 0.03 | 50 | 1012.5 |
| 20260507152040 | 69 | 242 | 4.0 | 8.0 | 0.00 | 0.25 | 0.03 | 49 | 1012.5 |
| 20260507151555 | 69 | 213 | 4.0 | 8.0 | 0.00 | 0.25 | 0.03 | 51 | 1012.6 |
| 20260507151035 | 69 | 207 | 2.0 | 9.0 | 0.00 | 0.25 | 0.03 | 49 | 1012.5 |
| 20260507150535 | 69 | 172 | 4.0 | 9.0 | 0.00 | 0.25 | 0.03 | 51 | 1012.6 |
| 20260507150051 | 69 | 144 | 2.0 | 6.0 | 0.00 | 0.25 | 0.03 | 51 | 1012.5 |
| 20260507145537 | 69 | 153 | 2.0 | 6.0 | 0.00 | 0.25 | 0.03 | 49 | 1012.5 |
| 20260507145036 | 69 | 160 | 3.0 | 6.0 | 0.00 | 0.25 | 0.03 | 50 | 1012.6 |
| 20260507144547 | 69 | 193 | 3.0 | 6.0 | 0.00 | 0.25 | 0.03 | 49 | 1012.5 |
| 20260507144036 | 69 | 156 | 2.0 | 10.0 | 0.00 | 0.25 | 0.03 | 46 | 1012.5 |
| 20260507143534 | 69 | 162 | 3.0 | 10.0 | 0.00 | 0.25 | 0.03 | 52 | 1012.7 |
| 20260507143054 | 69 | 174 | 4.0 | 10.0 | 0.00 | 0.25 | 0.03 | 53 | 1012.7 |
| 20260507142535 | 69 | 164 | 3.0 | 9.0 | 0.00 | 0.25 | 0.03 | 51 | 1012.7 |
| 20260507142035 | 69 | 175 | 4.0 | 12.0 | 0.00 | 0.25 | 0.03 | 49 | 1012.8 |
| 20260507141548 | 69 | 178 | 4.0 | 12.0 | 0.00 | 0.25 | 0.03 | 54 | 1012.9 |
| 20260507141035 | 68 | 171 | 5.0 | 11.0 | 0.00 | 0.25 | 0.03 | 52 | 1012.9 |
| 20260507140535 | 68 | 188 | 4.0 | 11.0 | 0.00 | 0.25 | 0.03 | 51 | 1012.9 |
| 20260507140057 | 68 | 188 | 4.0 | 10.0 | 0.00 | 0.25 | 0.03 | 48 | 1013.0 |
| 20260507135535 | 69 | 158 | 3.0 | 10.0 | 0.00 | 0.29 | 0.03 | 54 | 1012.9 |
| 20260507135037 | 68 | 212 | 4.0 | 8.0 | 0.00 | 0.29 | 0.03 | 55 | 1012.9 |
| 20260507134547 | 68 | 259 | 3.0 | 10.0 | 0.00 | 0.29 | 0.03 | 51 | 1012.9 |
| 20260507134034 | 68 | 230 | 4.0 | 10.0 | 0.00 | 0.29 | 0.03 | 51 | 1013.1 |
| 20260507133535 | 69 | 159 | 4.0 | 9.0 | 0.00 | 0.29 | 0.03 | 53 | 1013.2 |
| 20260507133045 | 69 | 205 | 3.0 | 9.0 | 0.00 | 0.29 | 0.03 | 54 | 1013.2 |
| 20260507132534 | 69 | 249 | 5.0 | 10.0 | 0.00 | 0.29 | 0.03 | 55 | 1013.3 |
| 20260507132035 | 68 | 254 | 4.0 | 11.0 | 0.00 | 0.29 | 0.03 | 50 | 1013.4 |
| 20260507131609 | 68 | 223 | 5.0 | 11.0 | 0.00 | 0.29 | 0.03 | 52 | 1013.4 |
| 20260507131035 | 68 | 248 | 5.0 | 11.0 | 0.00 | 0.29 | 0.03 | 56 | 1013.5 |
| 20260507130534 | 68 | 228 | 4.0 | 11.0 | 0.00 | 0.29 | 0.03 | 55 | 1013.6 |
| 20260507130043 | 68 | 215 | 4.0 | 11.0 | 0.00 | 0.29 | 0.03 | 58 | 1013.5 |
| 20260507125534 | 67 | 230 | 5.0 | 11.0 | 0.00 | 0.79 | 0.03 | 56 | 1013.5 |
| 20260507125035 | 67 | 216 | 4.0 | 11.0 | 0.00 | 0.79 | 0.03 | 59 | 1013.5 |
| 20260507124554 | 67 | 267 | 5.0 | 12.0 | 0.00 | 0.79 | 0.03 | 58 | 1013.5 |
| 20260507124036 | 67 | 237 | 6.0 | 13.0 | 0.00 | 0.79 | 0.03 | 57 | 1013.4 |
| 20260507123534 | 66 | 257 | 6.0 | 13.0 | 0.00 | 0.79 | 0.03 | 57 | 1013.4 |
| 20260507123047 | 66 | 277 | 6.0 | 12.0 | 0.00 | 0.79 | 0.03 | 58 | 1013.5 |
| 20260507122534 | 66 | 249 | 6.0 | 11.0 | 0.00 | 0.79 | 0.03 | 62 | 1013.5 |
| 20260507122034 | 66 | 227 | 6.0 | 12.0 | 0.00 | 0.79 | 0.03 | 61 | 1013.4 |
| 20260507121543 | 66 | 196 | 4.0 | 12.0 | 0.00 | 0.79 | 0.03 | 66 | 1013.4 |
| 20260507121035 | 66 | 289 | 5.0 | 11.0 | 0.00 | 0.79 | 0.03 | 62 | 1013.4 |
| 20260507120534 | 65 | 219 | 6.0 | 11.0 | 0.00 | 0.79 | 0.03 | 61 | 1013.5 |
| 20260507120047 | 65 | 237 | 6.0 | 11.0 | 0.00 | 0.79 | 0.03 | 63 | 1013.3 |
| 20260507115535 | 65 | 217 | 5.0 | 12.0 | 0.00 | 0.89 | 0.03 | 64 | 1013.4 |
| 20260507115034 | 65 | 257 | 6.0 | 12.0 | 0.00 | 0.89 | 0.03 | 63 | 1013.5 |
| 20260507114548 | 65 | 245 | 4.0 | 12.0 | 0.00 | 0.89 | 0.03 | 63 | 1013.4 |
| 20260507114042 | 65 | 273 | 7.0 | 12.0 | 0.00 | 0.89 | 0.03 | 64 | 1013.5 |
| 20260507113535 | 65 | 245 | 5.0 | 12.0 | 0.00 | 0.89 | 0.03 | 64 | 1013.4 |
| 20260507113109 | 65 | 294 | 5.0 | 13.0 | 0.00 | 0.89 | 0.03 | 64 | 1013.4 |
| 20260507112536 | 64 | 275 | 5.0 | 13.0 | 0.00 | 0.89 | 0.03 | 63 | 1013.6 |
| 20260507112034 | 64 | 240 | 6.0 | 14.0 | 0.00 | 0.89 | 0.03 | 63 | 1013.6 |
| 20260507111545 | 64 | 286 | 6.0 | 14.0 | 0.00 | 0.89 | 0.03 | 60 | 1013.6 |
| 20260507111034 | 64 | 259 | 7.0 | 14.0 | 0.00 | 0.89 | 0.03 | 63 | 1013.7 |
| 20260507110534 | 64 | 282 | 4.0 | 13.0 | 0.00 | 0.89 | 0.03 | 65 | 1013.6 |
| 20260507110048 | 64 | 237 | 8.0 | 12.0 | 0.00 | 0.89 | 0.03 | 64 | 1013.6 |
| 20260507105534 | 63 | 262 | 4.0 | 12.0 | 0.00 | 0.92 | 0.03 | 65 | 1013.8 |
| 20260507105035 | 63 | 254 | 7.0 | 12.0 | 0.00 | 0.92 | 0.03 | 65 | 1013.7 |
| 20260507104556 | 63 | 290 | 5.0 | 10.0 | 0.00 | 0.92 | 0.03 | 67 | 1013.8 |
| 20260507104035 | 62 | 271 | 4.0 | 10.0 | 0.00 | 0.92 | 0.03 | 65 | 1014.0 |
| 20260507103535 | 62 | 238 | 6.0 | 10.0 | 0.00 | 0.92 | 0.03 | 65 | 1014.0 |
| 20260507103050 | 62 | 259 | 4.0 | 10.0 | 0.00 | 0.92 | 0.03 | 65 | 1014.0 |
| 20260507102535 | 62 | 252 | 5.0 | 10.0 | 0.00 | 0.92 | 0.03 | 64 | 1014.0 |
| 20260507102034 | 62 | 272 | 4.0 | 10.0 | 0.00 | 0.92 | 0.03 | 69 | 1014.1 |
| 20260507101554 | 62 | 232 | 4.0 | 10.0 | 0.00 | 0.92 | 0.03 | 70 | 1014.0 |
| 20260507101036 | 61 | 215 | 4.0 | 10.0 | 0.00 | 0.92 | 0.03 | 71 | 1014.2 |
| 20260507100536 | 61 | 274 | 6.0 | 11.0 | 0.00 | 0.92 | 0.03 | 74 | 1014.1 |
| 20260507100054 | 61 | 240 | 3.0 | 11.0 | 0.00 | 0.92 | 0.03 | 70 | 1014.1 |
| 20260507095538 | 61 | 246 | 5.0 | 11.0 | 0.00 | 0.93 | 0.03 | 74 | 1014.1 |
| 20260507095037 | 60 | 254 | 4.0 | 8.0 | 0.00 | 0.93 | 0.03 | 76 | 1014.1 |
| 20260507094604 | 60 | 209 | 4.0 | 8.0 | 0.00 | 0.93 | 0.03 | 76 | 1014.2 |
| 20260507094036 | 60 | 267 | 5.0 | 8.0 | 0.00 | 0.93 | 0.03 | 75 | 1013.9 |
| 20260507093538 | 59 | 219 | 4.0 | 8.0 | 0.00 | 0.93 | 0.03 | 78 | 1014.1 |
| 20260507093050 | 59 | 238 | 3.0 | 6.0 | 0.00 | 0.93 | 0.03 | 80 | 1014.1 |
| 20260507092535 | 59 | 251 | 3.0 | 6.0 | 0.00 | 0.93 | 0.03 | 80 | 1014.1 |
| 20260507092037 | 59 | 186 | 1.0 | 7.0 | 0.00 | 0.93 | 0.03 | 79 | 1014.1 |
| 20260507091550 | 58 | 207 | 2.0 | 7.0 | 0.00 | 0.93 | 0.03 | 80 | 1014.0 |
| 20260507091036 | 58 | 213 | 3.0 | 7.0 | 0.00 | 0.93 | 0.03 | 80 | 1014.1 |
| 20260507090532 | 58 | 281 | 3.0 | 7.0 | 0.00 | 0.93 | 0.03 | 81 | 1014.2 |
| 20260507090049 | 58 | 262 | 3.0 | 7.0 | 0.00 | 0.93 | 0.03 | 80 | 1014.2 |
| 20260507085531 | 57 | 263 | 1.0 | 7.0 | 0.00 | 0.93 | 0.03 | 80 | 1014.2 |
| 20260507085036 | 57 | 241 | 2.0 | 7.0 | 0.00 | 0.93 | 0.03 | 80 | 1014.2 |
| 20260507084553 | 57 | 200 | 3.0 | 7.0 | 0.00 | 0.93 | 0.03 | 81 | 1014.2 |
| 20260507084035 | 56 | 200 | 2.0 | 5.0 | 0.00 | 0.93 | 0.03 | 84 | 1014.1 |
| 20260507083535 | 56 | 212 | 2.0 | 5.0 | 0.00 | 0.93 | 0.03 | 83 | 1014.1 |
| 20260507083047 | 56 | 157 | 2.0 | 7.0 | 0.00 | 0.93 | 0.03 | 82 | 1013.9 |
| 20260507082535 | 56 | 153 | 2.0 | 7.0 | 0.00 | 0.93 | 0.03 | 84 | 1014.1 |
| 20260507082034 | 55 | 191 | 1.0 | 6.0 | 0.00 | 0.93 | 0.03 | 83 | 1014.1 |
| 20260507081550 | 55 | 179 | 2.0 | 5.0 | 0.00 | 0.93 | 0.03 | 84 | 1014.1 |
| 20260507081035 | 55 | 150 | 2.0 | 5.0 | 0.00 | 0.93 | 0.03 | 85 | 1014.1 |
| 20260507080536 | 55 | 143 | 1.0 | 5.0 | 0.00 | 0.93 | 0.03 | 87 | 1014.2 |
| 20260507080055 | 54 | 150 | 1.0 | 4.0 | 0.00 | 0.93 | 0.03 | 87 | 1014.3 |
| 20260507075533 | 54 | 133 | 1.0 | 4.0 | 0.00 | 0.94 | 0.03 | 89 | 1014.2 |
| 20260507075034 | 54 | 0 | 1.0 | 5.0 | 0.00 | 0.94 | 0.03 | 90 | 1014.3 |
| 20260507074551 | 54 | 0 | 2.0 | 5.0 | 0.00 | 0.94 | 0.03 | 93 | 1014.2 |
| 20260507074035 | 53 | 167 | 2.0 | 5.0 | 0.00 | 0.94 | 0.03 | 93 | 1014.3 |
| 20260507073535 | 52 | 161 | 2.0 | 5.0 | 0.00 | 0.94 | 0.03 | 93 | 1014.3 |
| 20260507073053 | 52 | 158 | 1.0 | 4.0 | 0.00 | 0.94 | 0.03 | 94 | 1014.4 |
| 20260507072531 | 51 | 0 | 0.0 | 4.0 | 0.00 | 0.94 | 0.03 | 93 | 1014.4 |
| 20260507072035 | 51 | 186 | 0.0 | 4.0 | 0.00 | 0.94 | 0.03 | 94 | 1014.4 |
| 20260507071549 | 51 | 126 | 1.0 | 3.0 | 0.00 | 0.94 | 0.03 | 95 | 1014.4 |
| 20260507071035 | 51 | 98 | 1.0 | 3.0 | 0.00 | 0.94 | 0.03 | 95 | 1014.4 |
| 20260507070535 | 51 | 160 | 0.0 | 3.0 | 0.00 | 0.94 | 0.03 | 96 | 1014.3 |
| 20260507070105 | 51 | 175 | 0.0 | 3.0 | 0.00 | 0.94 | 0.03 | 96 | 1014.2 |
| 20260507065536 | 50 | 191 | 1.0 | 4.0 | 0.00 | 1.03 | 0.03 | 96 | 1014.4 |
| 20260507065036 | 50 | 0 | 1.0 | 4.0 | 0.00 | 1.03 | 0.03 | 96 | 1014.3 |
| 20260507064549 | 50 | 165 | 0.0 | 4.0 | 0.00 | 1.03 | 0.03 | 96 | 1014.3 |
| 20260507064034 | 50 | 161 | 0.0 | 4.0 | 0.00 | 1.03 | 0.03 | 96 | 1014.2 |
| 20260507063535 | 50 | 159 | 1.0 | 4.0 | 0.00 | 1.03 | 0.03 | 96 | 1014.2 |
| 20260507063053 | 49 | 131 | 0.0 | 4.0 | 0.00 | 1.03 | 0.03 | 96 | 1014.3 |
| 20260507062535 | 49 | 108 | 1.0 | 3.0 | 0.00 | 1.03 | 0.03 | 96 | 1014.2 |
| 20260507062034 | 49 | 134 | 0.0 | 2.0 | 0.00 | 1.03 | 0.03 | 96 | 1014.3 |
| 20260507061549 | 48 | 181 | 0.0 | 2.0 | 0.00 | 1.03 | 0.03 | 96 | 1014.3 |
| 20260507061031 | 48 | 255 | 0.0 | 1.0 | 0.00 | 1.03 | 0.03 | 96 | 1014.3 |
| 20260507060534 | 48 | 0 | 0.0 | 1.0 | 0.00 | 1.03 | 0.03 | 96 | 1014.2 |
| 20260507060047 | 48 | 255 | 0.0 | 2.0 | 0.00 | 1.03 | 0.03 | 96 | 1014.2 |
| 20260507055536 | 48 | 0 | 0.0 | 2.0 | 0.00 | 1.14 | 0.03 | 96 | 1014.1 |
| 20260507055035 | 48 | 255 | 0.0 | 2.0 | 0.00 | 1.14 | 0.03 | 96 | 1014.1 |
| 20260507054547 | 47 | 255 | 0.0 | 2.0 | 0.00 | 1.14 | 0.03 | 95 | 1014.1 |
| 20260507054034 | 47 | 0 | 0.0 | 1.0 | 0.00 | 1.14 | 0.03 | 95 | 1013.9 |
| 20260507053535 | 47 | 0 | 0.0 | 1.0 | 0.00 | 1.14 | 0.03 | 95 | 1013.8 |
| 20260507053047 | 47 | 0 | 0.0 | 2.0 | 0.00 | 1.14 | 0.03 | 95 | 1013.7 |
| 20260507052535 | 48 | 0 | 0.0 | 2.0 | 0.00 | 1.14 | 0.03 | 96 | 1013.8 |
| 20260507052035 | 48 | 0 | 0.0 | 1.0 | 0.00 | 1.14 | 0.03 | 96 | 1013.7 |
| 20260507051546 | 48 | 0 | 0.0 | 0.0 | 0.00 | 1.14 | 0.03 | 96 | 1013.7 |
| 20260507051035 | 47 | 0 | 0.0 | 0.0 | 0.00 | 1.14 | 0.03 | 96 | 1013.6 |
| 20260507050535 | 47 | 0 | 0.0 | 1.0 | 0.00 | 1.14 | 0.03 | 96 | 1013.5 |
| 20260507050105 | 47 | 0 | 0.0 | 2.0 | 0.00 | 1.14 | 0.03 | 96 | 1013.5 |
| 20260507045535 | 47 | 339 | 1.0 | 2.0 | 0.00 | 1.25 | 0.03 | 96 | 1013.5 |
| 20260507045035 | 46 | 0 | 0.0 | 2.0 | 0.00 | 1.25 | 0.03 | 96 | 1013.5 |
| 20260507044553 | 46 | 0 | 0.0 | 0.0 | 0.00 | 1.25 | 0.03 | 95 | 1013.4 |
| 20260507044036 | 46 | 0 | 0.0 | 1.0 | 0.00 | 1.25 | 0.03 | 95 | 1013.4 |
| 20260507043535 | 46 | 0 | 0.0 | 2.0 | 0.00 | 1.25 | 0.03 | 95 | 1013.4 |
| 20260507043051 | 46 | 0 | 0.0 | 2.0 | 0.00 | 1.25 | 0.03 | 95 | 1013.3 |
| 20260507042538 | 47 | 0 | 0.0 | 2.0 | 0.00 | 1.25 | 0.03 | 95 | 1013.3 |
| 20260507042034 | 47 | 0 | 0.0 | 2.0 | 0.00 | 1.25 | 0.03 | 95 | 1013.3 |
| 20260507041550 | 46 | 22 | 0.0 | 2.0 | 0.00 | 1.25 | 0.03 | 95 | 1013.2 |
| 20260507041035 | 46 | 0 | 0.0 | 3.0 | 0.00 | 1.25 | 0.03 | 95 | 1013.3 |
| 20260507040535 | 46 | 17 | 1.0 | 3.0 | 0.00 | 1.25 | 0.03 | 94 | 1013.3 |
| 20260507040051 | 46 | 24 | 2.0 | 3.0 | 0.00 | 1.25 | 0.03 | 94 | 1013.1 |
| 20260507035535 | 46 | 5 | 2.0 | 3.0 | 0.00 | 1.41 | 0.03 | 95 | 1013.1 |
| 20260507035035 | 47 | 39 | 1.0 | 4.0 | 0.00 | 1.41 | 0.03 | 95 | 1013.1 |
| 20260507034550 | 46 | 0 | 1.0 | 4.0 | 0.00 | 1.41 | 0.03 | 95 | 1013.2 |
| 20260507034034 | 47 | 9 | 1.0 | 3.0 | 0.00 | 1.41 | 0.03 | 95 | 1013.2 |
| 20260507033537 | 47 | 5 | 2.0 | 3.0 | 0.00 | 1.41 | 0.03 | 94 | 1013.3 |
| 20260507033050 | 47 | 9 | 1.0 | 4.0 | 0.00 | 1.41 | 0.03 | 95 | 1013.2 |
| 20260507032534 | 47 | 10 | 2.0 | 4.0 | 0.00 | 1.41 | 0.03 | 95 | 1013.1 |
| 20260507032034 | 48 | 17 | 1.0 | 3.0 | 0.00 | 1.41 | 0.03 | 95 | 1013.1 |
| 20260507031548 | 48 | 28 | 1.0 | 3.0 | 0.00 | 1.41 | 0.03 | 96 | 1013.2 |
| 20260507031038 | 48 | 24 | 1.0 | 3.0 | 0.00 | 1.41 | 0.03 | 96 | 1013.2 |
| 20260507030535 | 47 | 0 | 0.0 | 3.0 | 0.00 | 1.41 | 0.03 | 95 | 1013.2 |
| 20260507030053 | 47 | 350 | 2.0 | 3.0 | 0.00 | 1.41 | 0.03 | 95 | 1013.3 |
| 20260507025534 | 47 | 360 | 1.0 | 3.0 | 0.00 | 1.45 | 0.03 | 95 | 1013.2 |
| 20260507025034 | 47 | 40 | 1.0 | 3.0 | 0.00 | 1.45 | 0.03 | 95 | 1013.1 |
| 20260507024549 | 47 | 50 | 1.0 | 3.0 | 0.00 | 1.45 | 0.03 | 95 | 1013.1 |
| 20260507024035 | 47 | 56 | 1.0 | 3.0 | 0.00 | 1.45 | 0.03 | 94 | 1012.9 |
| 20260507023535 | 47 | 0 | 0.0 | 4.0 | 0.00 | 1.45 | 0.03 | 94 | 1013.2 |
| 20260507023046 | 47 | 336 | 1.0 | 4.0 | 0.00 | 1.45 | 0.03 | 94 | 1013.2 |
| 20260507022535 | 47 | 325 | 1.0 | 4.0 | 0.00 | 1.45 | 0.03 | 94 | 1013.2 |
| 20260507022035 | 47 | 0 | 1.0 | 3.0 | 0.00 | 1.45 | 0.03 | 94 | 1013.3 |
| 20260507021556 | 47 | 355 | 1.0 | 3.0 | 0.00 | 1.45 | 0.03 | 94 | 1013.2 |
| 20260507021035 | 48 | 352 | 0.0 | 3.0 | 0.00 | 1.45 | 0.03 | 94 | 1013.2 |
| 20260507020535 | 48 | 339 | 1.0 | 3.0 | 0.00 | 1.45 | 0.03 | 95 | 1013.2 |
| 20260507020045 | 48 | 0 | 0.0 | 3.0 | 0.00 | 1.45 | 0.03 | 95 | 1013.1 |
| 20260507015536 | 48 | 346 | 1.0 | 3.0 | 0.00 | 1.46 | 0.03 | 95 | 1013.0 |
| 20260507015035 | 48 | 0 | 0.0 | 2.0 | 0.00 | 1.46 | 0.03 | 95 | 1013.0 |
| 20260507014543 | 48 | 0 | 0.0 | 2.0 | 0.00 | 1.46 | 0.03 | 95 | 1012.9 |
| 20260507014036 | 47 | 355 | 0.0 | 3.0 | 0.00 | 1.46 | 0.03 | 95 | 1013.0 |
| 20260507013534 | 47 | 332 | 1.0 | 3.0 | 0.00 | 1.46 | 0.03 | 95 | 1012.9 |
| 20260507013057 | 47 | 0 | 1.0 | 3.0 | 0.00 | 1.46 | 0.03 | 94 | 1012.8 |
| 20260507012537 | 48 | 337 | 0.0 | 3.0 | 0.00 | 1.46 | 0.03 | 94 | 1012.8 |
| 20260507012034 | 48 | 355 | 1.0 | 3.0 | 0.00 | 1.46 | 0.03 | 95 | 1012.7 |
| 20260507011550 | 48 | 0 | 1.0 | 3.0 | 0.00 | 1.46 | 0.03 | 95 | 1012.7 |
| 20260507011031 | 48 | 360 | 0.0 | 3.0 | 0.00 | 1.46 | 0.03 | 95 | 1012.8 |
| 20260507010535 | 48 | 15 | 1.0 | 3.0 | 0.00 | 1.46 | 0.03 | 95 | 1012.8 |
| 20260507010048 | 48 | 34 | 2.0 | 3.0 | 0.00 | 1.46 | 0.03 | 95 | 1012.7 |
| 20260507005535 | 48 | 11 | 1.0 | 3.0 | 0.00 | 1.62 | 0.03 | 94 | 1012.6 |
| 20260507005037 | 48 | 23 | 1.0 | 3.0 | 0.00 | 1.62 | 0.03 | 95 | 1012.5 |
| 20260507004553 | 48 | 355 | 1.0 | 3.0 | 0.00 | 1.62 | 0.03 | 95 | 1012.7 |
| 20260507004035 | 48 | 292 | 1.0 | 3.0 | 0.00 | 1.62 | 0.03 | 95 | 1012.7 |
| 20260507003535 | 48 | 0 | 0.0 | 3.0 | 0.00 | 1.62 | 0.03 | 95 | 1012.7 |
| 20260507003050 | 48 | 24 | 1.0 | 3.0 | 0.00 | 1.62 | 0.03 | 95 | 1012.7 |
| 20260507002534 | 48 | 13 | 1.0 | 3.0 | 0.00 | 1.62 | 0.03 | 95 | 1012.8 |
| 20260507002035 | 48 | 5 | 2.0 | 4.0 | 0.00 | 1.62 | 0.03 | 95 | 1012.7 |
| 20260507001548 | 49 | 10 | 0.0 | 4.0 | 0.00 | 1.62 | 0.03 | 95 | 1012.6 |
| 20260507001034 | 49 | 263 | 1.0 | 4.0 | 0.00 | 1.62 | 0.03 | 94 | 1012.7 |
| 20260507000536 | 49 | 349 | 1.0 | 3.0 | 0.00 | 1.62 | 0.03 | 95 | 1012.7 |
| 20260507000049 | 49 | 9 | 0.0 | 2.0 | 0.00 | 1.62 | 0.03 | 95 | 1012.5 |
| 20260506235534 | 49 | 335 | 1.0 | 2.0 | 0.00 | 1.62 | 0.03 | 95 | 1012.6 |
| 20260506235035 | 49 | 360 | 0.0 | 2.0 | 0.00 | 1.62 | 0.03 | 95 | 1012.7 |
| 20260506234552 | 49 | 360 | 0.0 | 3.0 | 0.00 | 1.62 | 0.03 | 95 | 1012.4 |
| 20260506234035 | 49 | 0 | 0.0 | 3.0 | 0.00 | 1.62 | 0.03 | 95 | 1012.4 |
| 20260506233535 | 49 | 339 | 1.0 | 3.0 | 0.00 | 1.62 | 0.03 | 95 | 1012.4 |
| 20260506233046 | 49 | 25 | 0.0 | 2.0 | 0.00 | 1.62 | 0.03 | 95 | 1012.3 |
| 20260506232534 | 49 | 0 | 0.0 | 2.0 | 0.00 | 1.62 | 0.03 | 95 | 1012.5 |
| 20260506232034 | 49 | 0 | 0.0 | 3.0 | 0.00 | 1.62 | 0.03 | 95 | 1012.7 |
| 20260506231546 | 49 | 0 | 1.0 | 4.0 | 0.01 | 1.62 | 0.03 | 95 | 1012.5 |
| 20260506231035 | 49 | 355 | 1.0 | 4.0 | 0.02 | 1.62 | 0.03 | 95 | 1012.6 |
| 20260506230534 | 49 | 23 | 2.0 | 5.0 | 0.03 | 1.62 | 0.03 | 95 | 1012.6 |
| 20260506230056 | 50 | 10 | 2.0 | 5.0 | 0.03 | 1.62 | 0.03 | 95 | 1012.5 |
| 20260506225534 | 50 | 28 | 2.0 | 5.0 | 0.03 | 1.64 | 0.03 | 95 | 1012.5 |
| 20260506225035 | 50 | 355 | 1.0 | 4.0 | 0.03 | 1.64 | 0.03 | 95 | 1012.6 |
| 20260506224550 | 50 | 5 | 2.0 | 4.0 | 0.03 | 1.64 | 0.03 | 95 | 1012.5 |
| 20260506224034 | 50 | 34 | 1.0 | 4.0 | 0.03 | 1.64 | 0.03 | 95 | 1012.5 |
| 20260506223534 | 50 | 17 | 1.0 | 4.0 | 0.03 | 1.64 | 0.03 | 95 | 1012.4 |
| 20260506223056 | 50 | 37 | 1.0 | 5.0 | 0.03 | 1.64 | 0.03 | 95 | 1012.6 |
| 20260506222535 | 50 | 61 | 3.0 | 6.0 | 0.03 | 1.64 | 0.03 | 95 | 1012.5 |
| 20260506222038 | 50 | 71 | 2.0 | 6.0 | 0.03 | 1.63 | 0.03 | 94 | 1012.6 |
| 20260506221547 | 50 | 90 | 2.0 | 4.0 | 0.02 | 1.62 | 0.02 | 94 | 1012.6 |
| 20260506221034 | 50 | 15 | 1.0 | 4.0 | 0.02 | 1.62 | 0.01 | 94 | 1012.6 |
| 20260506220536 | 50 | 0 | 0.0 | 2.0 | 0.01 | 1.61 | 0.00 | 94 | 1012.7 |
| 20260506220053 | 50 | 5 | 0.0 | 3.0 | 0.00 | 1.60 | 0.00 | 94 | 1012.7 |
| 20260506215534 | 50 | 333 | 0.0 | 3.0 | 0.00 | 1.66 | 1.60 | 94 | 1012.8 |
| 20260506215034 | 50 | 303 | 0.0 | 2.0 | 0.00 | 1.66 | 1.60 | 94 | 1012.9 |
| 20260506214551 | 50 | 0 | 0.0 | 2.0 | 0.01 | 1.66 | 1.60 | 94 | 1012.7 |
| 20260506214035 | 50 | 340 | 1.0 | 3.0 | 0.02 | 1.66 | 1.60 | 94 | 1012.5 |
| 20260506213538 | 50 | 33 | 0.0 | 3.0 | 0.03 | 1.66 | 1.60 | 94 | 1012.6 |
| 20260506213048 | 50 | 0 | 1.0 | 4.0 | 0.03 | 1.66 | 1.60 | 94 | 1012.5 |
| 20260506212534 | 50 | 94 | 1.0 | 4.0 | 0.03 | 1.66 | 1.60 | 93 | 1012.5 |
| 20260506212035 | 50 | 51 | 1.0 | 5.0 | 0.03 | 1.66 | 1.60 | 93 | 1012.3 |
| 20260506211549 | 50 | 65 | 3.0 | 5.0 | 0.03 | 1.66 | 1.60 | 93 | 1012.0 |
| 20260506211034 | 50 | 31 | 1.0 | 3.0 | 0.03 | 1.66 | 1.59 | 93 | 1012.0 |
| 20260506210534 | 50 | 355 | 1.0 | 3.0 | 0.03 | 1.66 | 1.59 | 93 | 1012.4 |
| 20260506210048 | 50 | 327 | 1.0 | 4.0 | 0.03 | 1.66 | 1.59 | 94 | 1012.5 |
| 20260506205535 | 50 | 46 | 1.0 | 4.0 | 0.03 | 1.73 | 1.59 | 94 | 1012.3 |
| 20260506205035 | 50 | 42 | 2.0 | 4.0 | 0.04 | 1.73 | 1.59 | 94 | 1012.3 |